This is the latest recevied weather packets stored in our database for station/object IW0HP-13. If no packets are shown the sender has not sent any weather packets the latest 10 day(s).
| Time | Temp. | Humidity | Pressure | Rain* | Wind** | Luminosity | Snow |
|---|---|---|---|---|---|---|---|
| 1777388122 | 23.33° C | 22% | 1015.1 hPa | - | - | - | - |
| 1777386921 | 22.78° C | 22% | 1015.3 hPa | - | - | - | - |
| 1777385721 | 22.78° C | 22% | 1015.3 hPa | - | - | - | - |
| 1777384521 | 22.78° C | 22% | 1015.5 hPa | - | - | - | - |
| 1777383321 | 22.78° C | 22% | 1015.6 hPa | - | - | - | - |
| 1777382121 | 22.78° C | 23% | 1015.7 hPa | - | - | - | - |
| 1777380920 | 22.78° C | 27% | 1015.8 hPa | - | - | - | - |
| 1777379720 | 22.78° C | 27% | 1015.8 hPa | - | - | - | - |
| 1777378520 | 22.78° C | 29% | 1015.9 hPa | - | - | - | - |
| 1777377320 | 22.78° C | 30% | 1016 hPa | - | - | - | - |
| 1777376119 | 22.78° C | 30% | 1016.1 hPa | - | - | - | - |
| 1777374919 | 22.22° C | 27% | 1016.1 hPa | - | - | - | - |
| 1777373719 | 21.67° C | 29% | 1016.2 hPa | - | - | - | - |
| 1777372518 | 21.67° C | 32% | 1016.4 hPa | - | - | - | - |
| 1777371318 | 21.67° C | 33% | 1016.5 hPa | - | - | - | - |
| 1777370118 | 21.11° C | 32% | 1016.6 hPa | - | - | - | - |
| 1777368918 | 21.11° C | 37% | 1016.8 hPa | - | - | - | - |
| 1777367718 | 20.56° C | 40% | 1016.9 hPa | - | - | - | - |
| 1777366579 | 20° C | 41% | 1017 hPa | - | - | - | - |
| 1777365378 | 19.44° C | 44% | 1017.1 hPa | - | - | - | - |
| 1777364178 | 18.89° C | 46% | 1017 hPa | - | - | - | - |
| 1777362978 | 18.89° C | 47% | 1017.1 hPa | - | - | - | - |
| 1777361777 | 18.33° C | 49% | 1017.1 hPa | - | - | - | - |
| 1777360577 | 17.78° C | 50% | 1017.1 hPa | - | - | - | - |
| 1777359377 | 17.22° C | 51% | 1017.1 hPa | - | - | - | - |
* Rain since midnight (hover to see other rain measurements)
** Current wind speed in m/s (hover to see current wind gust speed)